Grosse Ile, MI

8:04 AM EDT on July 28, 2016 (GMT -0400)
Grosse Ile Municipal

Weather History for KONZ - September, 2013

Change the Weather History Date:

Tuesday, September 3, 2013

  Actual Average (KDTW) Record (KDTW)
Temperature  
Mean Temperature 66 °F 69 °F  
Max Temperature 73 °F 79 °F 100 °F (1953)
Min Temperature 59 °F 60 °F 43 °F (1976)
Degree Days  
Heating Degree Days 0 1  
Month to date heating degree days 3  
Since 1 July heating degree days 13  
Cooling Degree Days 1 5  
Month to date cooling degree days 15  
Year to date cooling degree days 726  
Growing Degree Days 16 (Base 50)    
Moisture  
Dew Point 53 °F    
Average Humidity 65    
Maximum Humidity 77    
Minimum Humidity 47    
Precipitation  
Precipitation 0.00 in 0.10 in 3.21 in (1879)
Month to date precipitation 0.32  
Year to date precipitation 22.75  
Snow  
Snow 0.00 in 0.00 in 0.00 in ()
Month to date snowfall 0.0  
Since 1 July snowfall 0.0  
Since 1 September snowfall 0.0  
Snow Depth -    
Sea Level Pressure  
Sea Level Pressure 29.97 in    
Wind  
Wind Speed 8 mph (NW)    
Max Wind Speed 13 mph    
Max Gust Speed 22 mph    
Visibility 10 miles    
Events      
T = Trace of Precipitation, MM = Missing Value Source: NWS Daily Summary

Daily Weather History Graph

Daily Weather History Graph

Search for Another Location

Airport or City:

Trip Planner

Search our weather history database for the weather conditions in past years. The results will help you decide how hot, cold, wet, or windy it might be!

Date:

Astronomy

Sep. 03, 2013 Rise Set
Actual Time 7:00 AM EDT 8:02 PM EDT
Civil Twilight 6:31 AM EDT 8:31 PM EDT
Nautical Twilight 5:57 AM EDT 9:05 PM EDT
Astronomical Twilight 5:21 AM EDT 9:40 PM EDT
Moon 5:12 AM EDT (9/3) 6:49 PM EDT (9/3)
Length of Visible Light 13h 59m
Length of Day
13h 02m
Waning Crescent, 3% of the Moon is Illuminated
Sep 3
Waning Crescent
Sep 5
New
Sep 12
First Quarter
Sep 19
Full
Sep 26
Last Quarter

Hourly Weather History & Observations

Time (EDT) Temp. Dew Point Humidity Pressure Visibility Wind Dir Wind Speed Gust Speed Precip Events Conditions
12:14 AM 64.4 °F 50.0 °F 59% 29.90 in 10.0 mi NW 12.7 mph 21.9 mph N/A   Overcast
12:34 AM 64.4 °F 50.0 °F 59% 29.90 in 10.0 mi NW 6.9 mph 10.4 mph N/A   Overcast
12:54 AM 64.4 °F 51.8 °F 64% 29.90 in 10.0 mi NNW 9.2 mph - N/A   Overcast
1:14 AM 62.6 °F 53.6 °F 72% 29.91 in 10.0 mi NW 12.7 mph 17.3 mph N/A   Overcast
1:33 AM 60.8 °F 53.6 °F 77% 29.91 in 10.0 mi NW 10.4 mph 18.4 mph N/A   Overcast
1:54 AM 60.8 °F 53.6 °F 77% 29.92 in 10.0 mi NW 8.1 mph - N/A   Overcast
2:14 AM 60.8 °F 53.6 °F 77% 29.92 in 10.0 mi NW 10.4 mph - N/A   Overcast
2:34 AM 60.8 °F 51.8 °F 72% 29.91 in 10.0 mi NW 9.2 mph - N/A   Overcast
2:54 AM 60.8 °F 51.8 °F 72% 29.91 in 10.0 mi NNW 9.2 mph - N/A   Overcast
3:14 AM 60.8 °F 51.8 °F 72% 29.92 in 10.0 mi NNW 9.2 mph - N/A   Overcast
3:34 AM 60.8 °F 51.8 °F 72% 29.92 in 10.0 mi NNW 10.4 mph 16.1 mph N/A   Overcast
3:54 AM 60.8 °F 51.8 °F 72% 29.92 in 10.0 mi NNW 9.2 mph - N/A   Overcast
4:14 AM 59.0 °F 51.8 °F 77% 29.92 in 10.0 mi NNW 6.9 mph - N/A   Overcast
4:34 AM 59.0 °F 51.8 °F 77% 29.92 in 10.0 mi WNW 4.6 mph - N/A   Overcast
4:54 AM 59.0 °F 51.8 °F 77% 29.93 in 10.0 mi West 6.9 mph - N/A   Overcast
5:14 AM 60.8 °F 51.8 °F 72% 29.93 in 10.0 mi WNW 5.8 mph - N/A   Overcast
5:34 AM 60.8 °F 51.8 °F 72% 29.93 in 10.0 mi WNW 6.9 mph - N/A   Overcast
5:54 AM 60.8 °F 51.8 °F 72% 29.93 in 10.0 mi WNW 8.1 mph - N/A   Overcast
6:14 AM 60.8 °F 51.8 °F 72% 29.94 in 10.0 mi NW 10.4 mph - N/A   Overcast
6:34 AM 60.8 °F 51.8 °F 72% 29.95 in 10.0 mi NW 9.2 mph - N/A   Overcast
6:54 AM 60.8 °F 51.8 °F 72% 29.95 in 10.0 mi NW 10.4 mph - N/A   Overcast
7:14 AM 60.8 °F 51.8 °F 72% 29.96 in 10.0 mi NW 9.2 mph - N/A   Overcast
7:34 AM 60.8 °F 51.8 °F 72% 29.97 in 10.0 mi WNW 6.9 mph - N/A   Overcast
7:54 AM 60.8 °F 51.8 °F 72% 29.97 in 10.0 mi NW 5.8 mph - N/A   Overcast
8:14 AM 60.8 °F 51.8 °F 72% 29.98 in 10.0 mi NW 8.1 mph - N/A   Overcast
8:34 AM 60.8 °F 51.8 °F 72% 29.99 in 10.0 mi NW 8.1 mph - N/A   Overcast
8:54 AM 60.8 °F 51.8 °F 72% 29.99 in 10.0 mi NW 9.2 mph - N/A   Overcast
9:14 AM 60.8 °F 51.8 °F 72% 30.00 in 10.0 mi NW 11.5 mph - N/A   Overcast
9:34 AM 60.8 °F 53.6 °F 77% 30.00 in 10.0 mi West 6.9 mph - N/A   Overcast
9:54 AM 62.6 °F 53.6 °F 72% 30.00 in 10.0 mi WNW 9.2 mph - N/A   Overcast
10:14 AM 62.6 °F 51.8 °F 68% 30.00 in 10.0 mi NNW 9.2 mph - N/A   Overcast
10:34 AM 62.6 °F 53.6 °F 72% 30.01 in 10.0 mi NW 6.9 mph - N/A   Overcast
10:54 AM 62.6 °F 53.6 °F 72% 30.01 in 10.0 mi NW 8.1 mph - N/A   Overcast
11:13 AM 64.4 °F 53.6 °F 68% 30.01 in 10.0 mi NW 9.2 mph - N/A   Overcast
11:34 AM 64.4 °F 53.6 °F 68% 30.01 in 10.0 mi NW 6.9 mph - N/A   Overcast
11:54 AM 64.4 °F 53.6 °F 68% 30.01 in 10.0 mi NW 8.1 mph - N/A   Overcast
12:14 PM 66.2 °F 53.6 °F 64% 30.01 in 10.0 mi WNW 6.9 mph - N/A   Mostly Cloudy
12:34 PM 66.2 °F 53.6 °F 64% 30.00 in 10.0 mi WNW 6.9 mph - N/A   Mostly Cloudy
12:54 PM 66.2 °F 53.6 °F 64% 30.00 in 10.0 mi NW 5.8 mph - N/A   Overcast
1:14 PM 69.8 °F 51.8 °F 53% 30.00 in 10.0 mi North 5.8 mph - N/A   Overcast
1:34 PM 68.0 °F 51.8 °F 56% 30.00 in 10.0 mi NW 6.9 mph - N/A   Overcast
1:54 PM 69.8 °F 51.8 °F 53% 30.00 in 10.0 mi NW 8.1 mph - N/A   Overcast
2:14 PM 69.8 °F 51.8 °F 53% 30.00 in 10.0 mi WNW 6.9 mph - N/A   Mostly Cloudy
2:34 PM 71.6 °F 51.8 °F 50% 30.00 in 10.0 mi WNW 8.1 mph - N/A   Scattered Clouds
2:54 PM 71.6 °F 53.6 °F 53% 29.99 in 10.0 mi NW 5.8 mph - N/A   Mostly Cloudy
3:14 PM 71.6 °F 53.6 °F 53% 29.99 in 10.0 mi WNW 9.2 mph - N/A   Scattered Clouds
3:34 PM 73.4 °F 55.4 °F 53% 29.98 in 10.0 mi WNW 9.2 mph - N/A   Scattered Clouds
3:54 PM 73.4 °F 53.6 °F 50% 29.97 in 10.0 mi WNW 5.8 mph - N/A   Scattered Clouds
4:14 PM 73.4 °F 53.6 °F 50% 29.97 in 10.0 mi WNW 8.1 mph - N/A   Clear
4:34 PM 73.4 °F 53.6 °F 50% 29.97 in 10.0 mi West 9.2 mph - N/A   Clear
4:53 PM 73.4 °F 53.6 °F 50% 29.97 in 10.0 mi West 5.8 mph - N/A   Clear
5:14 PM 73.4 °F 53.6 °F 50% 29.97 in 10.0 mi WNW 11.5 mph - N/A   Clear
5:34 PM 73.4 °F 51.8 °F 47% 29.97 in 10.0 mi NNW 5.8 mph - N/A   Clear
5:54 PM 73.4 °F 53.6 °F 50% 29.97 in 10.0 mi West 4.6 mph - N/A   Clear
6:14 PM 73.4 °F 51.8 °F 47% 29.97 in 10.0 mi WNW 5.8 mph 9.2 mph N/A   Clear
6:34 PM 73.4 °F 53.6 °F 50% 29.98 in 10.0 mi West 5.8 mph - N/A   Clear
6:54 PM 73.4 °F 53.6 °F 50% 29.97 in 10.0 mi West 4.6 mph - N/A   Clear
7:14 PM 71.6 °F 53.6 °F 53% 29.97 in 10.0 mi West 5.8 mph - N/A   Clear
7:33 PM 71.6 °F 53.6 °F 53% 29.97 in 10.0 mi West 4.6 mph - N/A   Clear
7:54 PM 69.8 °F 53.6 °F 56% 29.97 in 10.0 mi West 3.5 mph - N/A   Clear
8:14 PM 69.8 °F 53.6 °F 56% 29.98 in 10.0 mi West 4.6 mph - N/A   Clear
8:34 PM 69.8 °F 53.6 °F 56% 29.99 in 10.0 mi Calm Calm - N/A   Clear
8:54 PM 66.2 °F 57.2 °F 73% 29.99 in 7.0 mi Calm Calm - N/A   Clear
9:14 PM 66.2 °F 55.4 °F 68% 30.00 in 10.0 mi Calm Calm - N/A   Clear
9:34 PM 66.2 °F 55.4 °F 68% 30.00 in 10.0 mi Calm Calm - N/A   Clear
9:54 PM 66.2 °F 55.4 °F 68% 30.00 in 10.0 mi Calm Calm - N/A   Clear
10:14 PM 64.4 °F 57.2 °F 77% 30.01 in 10.0 mi Calm Calm - N/A   Clear
10:34 PM 66.2 °F 57.2 °F 73% 30.00 in 10.0 mi Calm Calm - N/A   Clear
10:54 PM 64.4 °F 55.4 °F 73% 30.01 in 10.0 mi Calm Calm - N/A   Clear
11:14 PM 64.4 °F 55.4 °F 73% 30.01 in 10.0 mi WSW 3.5 mph - N/A   Clear
11:34 PM 64.4 °F 55.4 °F 73% 30.01 in 10.0 mi West 5.8 mph - N/A   Clear
11:54 PM 64.4 °F 55.4 °F 73% 30.02 in 10.0 mi West 5.8 mph - N/A   Clear